Seitenverwaltung

Live am Platz

Die Bilder unserer Webcams werden alle 5 Minuten aktualisiert.

Sonnenaufgang:

06:57 UTC / 07:57 Lokal

Sonnenuntergang:

16:13 UTC / 17:13 Lokal

METAR (24.01.2020 00:50 UTC):

EDNY 240050Z AUTO 20004KT 9999 // OVC008/// M02/M03 Q1027
IFR

TAF (23.01.2020 23:00 UTC):

TAF EDNY 232300Z 2400/2424 VRB03KT 9000 OVC010 BECMG 2400/2402 OVC007 TEMPO 2402/2406 2000 BR OVC004 BECMG 2406/2409 FEW006 PROB30 TEMPO 2420/2424 2500 BCFG

Alle Angaben unverbindlich und ohne Gewähr. Zeiten genähert.

Für den Verkehrslandeplatz Konstanz werden keine offiziellen Wetterinformationen ausgegeben. Daher werden zur Orientierung Daten des nahegelegenen Flughafens Friedrichshafen dargestellt.

Flugwetterdaten zur Verfügung gestellt von wippich.aero.